[[{"header":{"parameterUnit":"m.s-1","parameterCategory":1,"la1":30.2991,"la2":30.254,"lo1":-89.0895,"lo2":-89.0444,"dy":0.0017,"dx":0.0017,"nx":28,"ny":28,"refTime":"2024-02-08T03:00:00:Z","depth":0,"parameterNumber":2,"parameterNumberName":"U-component_of_WINDS"},"data":[0,0,0,0,0,0,0,0,0,0,0,0,0,0,0,0,0,0,0,0,0,0,0,0,0,0,0,0,0,0,0,0,0,0,0,0,0,0,0,0,0,0,0,0,0,0,0,0,0,0,0,0,0,0,0,0,0,0,-2.9243,-2.9243,0,-2.9265,-2.9265,-2.9265,-2.9239,-2.9238,-2.9237,-2.9236,-2.9257,-2.9258,-2.9259,0,0,0,0,0,0,0,0,0,0,0,0,0,-2.9176,-2.9178,-2.9243,-2.9243,-2.9243,-2.9265,-2.9265,-2.9265,-2.9239,-2.9238,-2.9237,-2.9236,-2.9256,-2.9258,-2.9259,0,0,0,0,0,0,0,0,0,0,0,0,0,-2.9202,-2.9178,-2.9243,-2.9233,-2.9232,-2.9265,-2.9265,-2.9265,-2.9239,-2.9238,-2.9236,-2.9235,-2.9255,-2.9258,-2.926,-2.9302,0,0,-2.9266,-2.9267,0,0,0,0,0,0,0,0,-2.9201,-2.9205,-2.9234,-2.9234,-2.9233,-2.9248,-2.9249,-2.9278,-2.924,-2.9237,-2.9236,-2.9234,-2.9255,-2.9257,-2.9264,-2.9303,-2.9304,-2.9267,-2.9268,-2.9269,-2.9269,0,0,0,0,0,0,0,-2.9199,-2.9204,-2.9251,-2.9235,-2.9234,-2.9227,-2.9229,-2.9254,-2.9253,-2.9237,-2.9235,-2.9238,-2.9254,-2.9262,-2.9264,-2.9304,-2.9266,-2.9268,-2.927,-2.9271,-2.9378,-2.9379,0,0,0,0,0,0,-2.9199,-2.9203,-2.9251,-2.9252,-2.9213,-2.9229,-2.9231,-2.9244,-2.9253,-2.9253,-2.9239,-2.9237,-2.9259,-2.9262,-2.9265,-2.9314,-2.9269,-2.9271,-2.9272,-2.9376,-2.9378,-2.938,0,0,0,0,0,0,-2.9198,-2.9203,-2.925,-2.9227,-2.9232,-2.9232,-2.9247,-2.9246,-2.9253,-2.9255,-2.9254,-2.9248,-2.9258,-2.9262,-2.9293,-2.9314,-2.9272,-2.9274,-2.9374,-2.9377,-2.9379,-2.9413,0,0,0,0,0,0,-2.9196,-2.9203,-2.922,-2.9227,-2.9234,-2.9278,-2.9248,-2.9247,-2.9257,-2.9254,-2.9263,-2.9263,-2.9257,-2.929,-2.9295,-2.9316,-2.9275,-2.9372,-2.9376,-2.9378,-2.9409,-2.9416,-2.9421,0,0,0,0,0,-2.9194,-2.9228,-2.9221,-2.9227,-2.9254,-2.9279,-2.9283,-2.9276,-2.9259,-2.9275,-2.9276,-2.9262,-2.9311,-2.9293,-2.9299,-2.9321,-2.9371,-2.9375,-2.9378,-2.9407,-2.9414,-2.9421,0,0,0,0,0,0,-2.9222,-2.9229,-2.9221,-2.9259,-2.9269,-2.9275,-2.9295,-2.9285,-2.9299,-2.9296,-2.9286,-2.9288,-2.9321,-2.9325,-2.9304,-2.9362,-2.9338,-2.9343,-2.9358,-2.9365,-2.9371,-2.9369,-2.9277,0,0,0,0,0,-2.9233,-2.9254,-2.9258,-2.9292,-2.9297,-2.9296,-2.9306,-2.93,-2.931,-2.9314,-2.9317,-2.9326,-2.9343,-2.9355,-2.9371,-2.9411,-2.9411,-2.9429,-2.9434,-2.9439,-2.9443,-2.9462,-2.9469,-2.9391,-2.9391,-2.9391,0,0,-2.9256,-2.9262,-2.9275,-2.9298,-2.9305,-2.9325,-2.9299,-2.9322,-2.9337,-2.9317,-2.9346,-2.9349,-2.9359,-2.9394,-2.9409,-2.9397,-2.9465,-2.9444,-2.9447,-2.9448,-2.9466,-2.9474,-2.948,-2.9394,-2.9393,-2.9393,0,0,-2.9307,-2.9314,-2.9342,-2.935,-2.9361,-2.936,-2.9366,-2.9374,-2.9375,-2.9405,-2.939,-2.9407,-2.9438,-2.9445,-2.9452,-2.9506,-2.9493,-2.9512,-2.9541,-2.9561,-2.9567,-2.9572,-2.9589,-2.9596,-2.9516,-2.9516,-2.9516,0,-2.9333,-2.9364,-2.9358,-2.9382,-2.9391,-2.9375,-2.9403,-2.941,-2.9426,-2.9432,-2.9419,-2.9457,-2.9462,-2.9498,-2.9511,-2.9519,-2.9525,-2.951,-2.9566,-2.9572,-2.9577,-2.9593,-2.96,-2.9518,-2.9518,-2.9518,-2.9518,0,-2.9395,-2.9416,-2.9438,-2.9453,-2.9465,-2.9491,-2.9488,-2.9501,-2.9495,-2.9494,-2.9524,-2.953,-2.9547,-2.9555,-2.9549,-2.959,-2.9582,-2.9568,-2.9544,-2.9586,-2.9601,-2.9608,-2.9521,-2.952,-2.952,-2.9519,0,0,-2.9463,-2.9475,-2.9483,-2.9489,-2.9501,-2.9517,-2.9542,-2.9558,-2.9569,-2.958,-2.96,-2.9626,-2.9613,-2.9622,-2.9616,-2.9633,-2.9674,-2.9617,-2.9617,-2.9626,-2.9717,-2.9726,-2.9733,-2.9666,-2.9667,-2.9668,-2.9716,0,-2.9513,-2.9556,-2.9551,-2.9591,-2.961,-2.9596,-2.9617,-2.9626,-2.9626,-2.9642,-2.9643,-2.9661,-2.9643,-2.9648,-2.9665,-2.9665,-2.9691,-2.9662,-2.9682,-2.9683,-2.9678,-2.9742,-2.9751,-2.9796,-2.9722,-2.9723,-2.9723,0,-2.9576,-2.959,-2.9632,-2.964,-2.9648,-2.9667,-2.9681,-2.9697,-2.9706,-2.9706,-2.9716,-2.9707,-2.9731,-2.9708,-2.9739,-2.9719,-2.9728,-2.9729,-2.9731,-2.9731,-2.9704,-2.9741,-2.981,-2.9816,-2.9733,-2.9732,-2.9732,0,-2.9619,-2.9649,-2.9678,-2.9684,-2.9694,-2.9707,-2.9712,-2.972,-2.973,-2.9743,-2.9749,-2.9765,-2.9772,-2.9784,-2.9779,-2.9763,-2.9812,-2.9788,-2.981,-2.981,-2.9819,-2.9818,-2.9888,-2.9828,-2.9828,-2.9828,-2.9828,0,-2.9674,-2.97,-2.9697,-2.9714,-2.9743,-2.9737,-2.9765,-2.9768,-2.9776,-2.9793,-2.9782,-2.9798,-2.9792,-2.9807,-2.9804,-2.983,-2.9834,-2.9833,-2.9831,-2.9833,-2.9833,-2.9836,-2.9832,-2.983,-2.9829,-2.9829,-2.9829,0,-2.9726,-2.9725,-2.9755,-2.9763,-2.9765,-2.9786,-2.9791,-2.9807,-2.9808,-2.9829,-2.9834,-2.9834,-2.9852,-2.9849,-2.9869,-2.9866,-2.9898,-2.9894,-2.9895,-2.9893,-2.9914,-2.9911,-2.9987,-2.9996,-2.9932,-2.9933,-2.9933,0,-2.976,-2.978,-2.9789,-2.98,-2.9806,-2.9823,-2.9834,-2.9829,-2.984,-2.9852,-2.9866,-2.9883,-2.9896,-2.9925,-2.9926,-2.9941,-2.9936,-2.9961,-2.9938,-2.9938,-2.9934,-2.9932,-2.9933,-2.9965,-2.9966,-2.9966,-2.9967,0,-2.9819,-2.9818,-2.9834,-2.9849,-2.9862,-2.9874,-2.9884,-2.9894,-2.989,-2.9903,-2.9921,-2.9931,-2.9951,-2.9968,-2.9981,-2.9985,-2.9975,-2.9975,-2.998,-2.9981,-2.998,-2.9978,-2.9905,-2.9972,-2.9972,-2.9971,-2.9971,-2.9971,-2.9862,-2.9878,-2.9887,-2.9905,-2.9912,-2.9923,-2.9938,-2.994,-2.9955,-2.9971,-2.9968,-2.9988,-2.9996,-3.0014,-3.0019,-3.0034,-3.0025,-3.0033,-3.0035,-3.0036,-3.0038,-2.9979,-3.0037,-3.0037,-3.0037,-3.0037,-3.0037,0,-2.9919,-2.9924,-2.9941,-2.9956,-2.9969,-2.996,-2.9971,-2.9983,-3.0001,-3.001,-3.0023,-3.0043,-3.0059,-3.0062,-3.0077,-3.0088,-3.0084,-3.0092,-3.009,-3.0091,-3.0047,-3.004,-3.0095,-3.0095,-3.0095,-3.0095,-3.0095,-3.0095,-2.995,-2.9977,-2.9977,-3.0007,-3.0012,-3.0032,-3.0038,-3.0047,-3.0054,-3.0078,-3.0091,-3.0093,-3.0099,-3.0114,-3.0128,-3.0128,-3.0133,-3.0143,-3.0141,-3.01,-3.0094,-3.0088,-3.0081,-3.0145,-3.0145,-3.0184,-3.0184,-3.0184]},{"header":{"parameterUnit":"m.s-1","parameterCategory":1,"la1":30.2991,"la2":30.254,"lo1":-89.0895,"lo2":-89.0444,"dy":0.0017,"dx":0.0017,"nx":28,"ny":28,"refTime":"2024-02-08T03:00:00:Z","depth":0,"parameterNumber":3,"parameterNumberName":"V-component_of_WINDS"},"data":[0,0,0,0,0,0,0,0,0,0,0,0,0,0,0,0,0,0,0,0,0,0,0,0,0,0,0,0,0,0,0,0,0,0,0,0,0,0,0,0,0,0,0,0,0,0,0,0,0,0,0,0,0,0,0,0,0,0,1.6631,1.6632,0,1.6753,1.6754,1.6756,1.6802,1.6802,1.6801,1.6801,1.6927,1.6931,1.6934,0,0,0,0,0,0,0,0,0,0,0,0,0,1.644,1.6443,1.663,1.6632,1.6634,1.6753,1.6754,1.6756,1.6802,1.6802,1.6801,1.6801,1.6926,1.693,1.6935,0,0,0,0,0,0,0,0,0,0,0,0,0,1.6539,1.6444,1.663,1.6671,1.6676,1.6752,1.6754,1.6756,1.6802,1.6802,1.6801,1.6801,1.6925,1.693,1.6935,1.6981,0,0,1.6952,1.6955,0,0,0,0,0,0,0,0,1.6533,1.6546,1.6663,1.6668,1.6674,1.6762,1.6734,1.6832,1.6802,1.6754,1.6801,1.68,1.6873,1.6882,1.6907,1.6987,1.6992,1.6953,1.6956,1.6959,1.696,0,0,0,0,0,0,0,1.6526,1.6541,1.6679,1.6665,1.6672,1.6684,1.6698,1.6752,1.6815,1.6758,1.6762,1.6776,1.6875,1.6901,1.691,1.6994,1.6953,1.6958,1.6961,1.6963,1.7121,1.7122,0,0,0,0,0,0,1.6512,1.6535,1.6675,1.6683,1.6601,1.6688,1.6703,1.6734,1.6815,1.6826,1.6776,1.6778,1.6892,1.6903,1.6914,1.6975,1.6959,1.6964,1.6967,1.712,1.7121,1.7122,0,0,0,0,0,0,1.6508,1.6524,1.667,1.661,1.6629,1.6692,1.6726,1.6737,1.6763,1.6828,1.684,1.6791,1.6892,1.6907,1.6965,1.698,1.6966,1.6971,1.7119,1.712,1.7122,1.7095,0,0,0,0,0,0,1.6502,1.6522,1.6539,1.661,1.6632,1.6717,1.6727,1.674,1.6772,1.6775,1.6845,1.6856,1.6893,1.6956,1.697,1.6988,1.6976,1.7118,1.712,1.7121,1.7095,1.7096,1.7096,0,0,0,0,0,1.6495,1.6526,1.654,1.6557,1.6655,1.6718,1.6731,1.6772,1.6773,1.6791,1.6834,1.6854,1.6976,1.6962,1.6978,1.6997,1.7117,1.7119,1.7121,1.7095,1.7095,1.7096,0,0,0,0,0,0,1.6456,1.6536,1.6552,1.6607,1.6655,1.6726,1.675,1.6771,1.682,1.6821,1.6871,1.6886,1.6941,1.6975,1.6957,1.7047,1.7048,1.7053,1.7023,1.7024,1.7024,1.7015,1.698,0,0,0,0,0,1.6454,1.6497,1.6566,1.6608,1.6631,1.6686,1.6715,1.6743,1.6795,1.6816,1.6863,1.6913,1.6964,1.6995,1.7045,1.71,1.7118,1.7122,1.7122,1.7122,1.7126,1.7161,1.7165,1.7128,1.7128,1.7128,0,0,1.6449,1.6499,1.6523,1.6601,1.6642,1.6688,1.6703,1.675,1.6785,1.6823,1.6882,1.6918,1.6978,1.7035,1.7063,1.7065,1.714,1.7125,1.7124,1.7129,1.7164,1.7167,1.717,1.713,1.7129,1.7129,0,0,1.6465,1.6506,1.6546,1.6587,1.6649,1.6686,1.6696,1.6764,1.679,1.6849,1.688,1.6922,1.7007,1.7049,1.7082,1.7117,1.7138,1.7132,1.7134,1.7167,1.717,1.7173,1.7188,1.7192,1.7135,1.7135,1.7135,0,1.6451,1.6521,1.6564,1.6611,1.6645,1.6683,1.6726,1.6764,1.6838,1.6862,1.6864,1.6973,1.7015,1.7085,1.7094,1.7118,1.7132,1.7124,1.7166,1.717,1.7173,1.7188,1.7193,1.7134,1.7134,1.7135,1.7135,0,1.6503,1.6551,1.6576,1.6649,1.6686,1.673,1.6782,1.6815,1.684,1.6878,1.6939,1.6992,1.7054,1.7073,1.7097,1.7147,1.7147,1.7156,1.7159,1.7175,1.7189,1.7195,1.7133,1.7133,1.7134,1.7134,0,0,1.6495,1.6593,1.6602,1.6637,1.6709,1.6748,1.6795,1.6856,1.6885,1.6936,1.6978,1.705,1.7061,1.7098,1.7128,1.7157,1.7185,1.7164,1.7166,1.7168,1.7245,1.7238,1.7244,1.7199,1.72,1.7201,1.7241,0,1.6522,1.6607,1.6649,1.6717,1.6764,1.6801,1.6843,1.6893,1.693,1.6975,1.7016,1.7068,1.7076,1.71,1.713,1.7174,1.7201,1.7172,1.724,1.7242,1.7225,1.7251,1.7243,1.7278,1.7247,1.7248,1.7248,0,1.6563,1.6616,1.6688,1.6758,1.6779,1.6815,1.6877,1.6919,1.6978,1.7003,1.7046,1.7076,1.7129,1.7127,1.7202,1.7182,1.7212,1.7239,1.7241,1.725,1.7247,1.7262,1.729,1.7296,1.7258,1.7257,1.7256,0,1.6553,1.6641,1.6697,1.6725,1.6807,1.6833,1.6868,1.6926,1.6962,1.7016,1.704,1.7098,1.7131,1.7177,1.7223,1.7217,1.7295,1.7296,1.7319,1.7318,1.7334,1.7332,1.7368,1.7351,1.7351,1.7351,1.7351,0,1.6579,1.6622,1.6694,1.6728,1.6779,1.6828,1.6877,1.6916,1.6967,1.7011,1.7047,1.7088,1.7146,1.7194,1.723,1.7289,1.7303,1.7326,1.7335,1.7323,1.732,1.7345,1.7344,1.7352,1.7352,1.7351,1.7351,0,1.6575,1.6625,1.6688,1.6762,1.6782,1.6816,1.688,1.6916,1.6956,1.7011,1.7027,1.7089,1.7148,1.7199,1.7276,1.7301,1.7362,1.7372,1.7342,1.7347,1.7368,1.7366,1.7422,1.7433,1.7406,1.7406,1.7406,0,1.6589,1.6623,1.6702,1.6734,1.6769,1.682,1.6857,1.6907,1.6944,1.7016,1.7043,1.7105,1.7158,1.7251,1.7304,1.7364,1.7377,1.7393,1.7386,1.7375,1.738,1.7378,1.7383,1.7393,1.7393,1.7393,1.7393,0,1.6608,1.6632,1.6683,1.6744,1.6787,1.6838,1.6889,1.6914,1.6974,1.7014,1.7076,1.7116,1.7197,1.7259,1.7326,1.7364,1.739,1.7395,1.7404,1.7392,1.7375,1.7387,1.7345,1.7393,1.7393,1.7393,1.7393,1.7393,1.6615,1.6648,1.671,1.6767,1.6811,1.6859,1.6898,1.6943,1.6995,1.7065,1.7092,1.7155,1.7216,1.7309,1.7347,1.7399,1.7402,1.7414,1.7418,1.742,1.742,1.7366,1.7411,1.7411,1.7411,1.7411,1.7411,0,1.6637,1.6679,1.6731,1.6803,1.6849,1.6869,1.6929,1.6966,1.7021,1.7076,1.7127,1.7199,1.7261,1.7319,1.7384,1.7414,1.7428,1.743,1.7428,1.7438,1.7411,1.7398,1.7418,1.7418,1.7418,1.7418,1.7418,1.7418,1.6654,1.6714,1.6745,1.6828,1.687,1.6932,1.6965,1.7011,1.7055,1.7134,1.7185,1.7223,1.7281,1.735,1.7408,1.7424,1.7447,1.7446,1.7465,1.744,1.7439,1.7438,1.7426,1.745,1.745,1.7488,1.7488,1.7488]}]]